Tracking 29892 objects as of 21-Nov-2024
HD Live streaming from Space Station
objects crossing your sky now

STARLINK-4152

Track STARLINK-4152 now!
10-day predictions
STARLINK-4152 is classified as:


NORAD ID: 53136
Int'l Code: 2022-083E
Perigee: 545.8 km
Apogee: 547.9 km
Inclination: 53.2 °
Period: 95.4 minutes
Semi major axis: 6917 km
RCS: Unknown
Launch date: July 17, 2022
Source: United States (US)
Launch site: AIR FORCE EASTERN TEST RANGE (AFETR)
Your satellite tracking list
Your tracking list is empty




NASA's NSSDC Master Catalog

Two Line Element Set (TLE):
1 53136U 22083E   24325.86310557  .00001093  00000-0  86747-4 0  9993
2 53136  53.2165 141.2122 0001560 102.0348 258.0819 15.08849953130318
Source of the keplerian elements: AFSPC